EW6810 Weather Reports


Display with metric or nautical units.
time (UTC)temp
F
wind
direction
speed
MPH
gust
MPH
rain 1hr
in
rain 24hr
in
rain mn
in
humidity
%
barometer
mb
20260510082040 53 66 1.0 3.0 0.00 0.00 0.00 64 1012.9
20260510081548 53 347 1.0 2.0 0.00 0.00 0.00 64 1012.8
20260510081038 53 347 1.0 3.0 0.00 0.00 0.00 63 1012.6
20260510080540 54 347 1.0 3.0 0.00 0.00 0.00 62 1012.7
20260510080044 54 348 1.0 3.0 0.00 0.00 0.00 62 1012.7
20260510075536 54 347 1.0 6.0 0.00 0.00 0.00 61 1012.8
20260510075035 54 338 1.0 6.0 0.00 0.00 0.00 59 1012.8
20260510074534 54 278 0.0 6.0 0.00 0.00 0.00 60 1012.5
20260510074033 54 236 1.0 5.0 0.00 0.00 0.00 61 1012.5
20260510073534 54 50 1.0 4.0 0.00 0.00 0.00 61 1012.4
20260510073033 54 42 1.0 5.0 0.00 0.00 0.00 60 1012.4
20260510072533 54 14 1.0 5.0 0.00 0.00 0.00 62 1012.4
20260510072031 54 23 0.0 2.0 0.00 0.00 0.00 62 1012.5
20260510071532 54 23 1.0 2.0 0.00 0.00 0.00 62 1012.5
20260510071030 54 28 0.0 0.0 0.00 0.00 0.00 63 1012.5
20260510070531 54 28 0.0 1.0 0.00 0.00 0.00 62 1012.4
20260510070031 54 28 0.0 2.0 0.00 0.00 0.00 62 1012.5
20260510065533 54 28 0.0 2.0 0.00 0.00 0.00 62 1012.5
20260510065027 54 30 1.0 2.0 0.00 0.00 0.00 62 1012.5
20260510064529 55 32 1.0 2.0 0.00 0.00 0.00 62 1012.5
20260510064024 55 33 0.0 2.0 0.00 0.00 0.00 61 1012.6
20260510063525 55 34 0.0 2.0 0.00 0.00 0.00 60 1012.5
20260510063021 55 34 0.0 6.0 0.00 0.00 0.00 61 1012.5
20260510062521 55 34 2.0 6.0 0.00 0.00 0.00 62 1012.5
20260510062018 55 296 1.0 5.0 0.00 0.00 0.00 62 1012.6
20260510061517 55 44 2.0 5.0 0.00 0.00 0.00 62 1012.6
20260510061017 55 360 1.0 2.0 0.00 0.00 0.00 62 1012.7
20260510060515 55 302 1.0 2.0 0.00 0.00 0.00 61 1012.7
20260510060013 55 303 0.0 4.0 0.00 0.00 0.00 61 1012.6
20260510055515 55 303 1.0 8.0 0.00 0.00 0.00 61 1012.6
20260510055010 55 354 2.0 8.0 0.00 0.00 0.00 61 1012.6
20260510054508 55 305 1.0 3.0 0.00 0.00 0.00 61 1012.5
20260510054006 55 335 1.0 2.0 0.00 0.00 0.00 63 1012.4
20260510053504 55 335 0.0 2.0 0.00 0.00 0.00 63 1012.4
20260510053003 56 335 0.0 4.0 0.00 0.00 0.00 63 1012.5
20260510052502 56 335 1.0 4.0 0.00 0.00 0.00 63 1012.6
20260510052101 56 351 1.0 3.0 0.00 0.00 0.00 62 1012.6
20260510051600 56 285 0.0 2.0 0.00 0.00 0.00 60 1012.6
20260510051059 56 287 1.0 2.0 0.00 0.00 0.00 58 1012.7
20260510050602 56 283 0.0 3.0 0.00 0.00 0.00 58 1012.6
20260510050100 56 283 0.0 3.0 0.00 0.00 0.00 58 1012.7
20260510045558 56 283 1.0 2.0 0.00 0.00 0.00 59 1012.7
20260510045058 57 283 0.0 2.0 0.00 0.00 0.00 59 1012.8
20260510044637 57 283 0.0 2.0 0.00 0.00 0.00 59 1012.9
20260510044056 57 279 0.0 2.0 0.00 0.00 0.00 59 1012.9
20260510043557 58 279 0.0 4.0 0.00 0.00 0.00 59 1012.9
20260510043057 58 278 1.0 5.0 0.00 0.00 0.00 59 1012.9
20260510042558 57 234 2.0 5.0 0.00 0.00 0.00 60 1012.9
20260510042058 57 23 0.0 2.0 0.00 0.00 0.00 57 1012.8
20260510041556 57 23 1.0 2.0 0.00 0.00 0.00 56 1012.9
20260510041057 57 23 0.0 2.0 0.00 0.00 0.00 57 1012.9
20260510040551 58 23 0.0 3.0 0.00 0.00 0.00 56 1012.9
20260510040052 58 23 1.0 3.0 0.00 0.00 0.00 55 1012.8
20260510035550 58 32 1.0 3.0 0.00 0.00 0.00 56 1012.7
20260510035048 58 32 1.0 3.0 0.00 0.00 0.00 57 1012.7
20260510034547 58 32 1.0 3.0 0.00 0.00 0.00 57 1012.7
20260510034046 58 32 0.0 0.0 0.00 0.00 0.00 58 1012.7
20260510033545 59 171 0.0 0.0 0.00 0.00 0.00 59 1012.6
20260510033044 59 171 0.0 0.0 0.00 0.00 0.00 59 1012.7
20260510032541 59 171 0.0 0.0 0.00 0.00 0.00 59 1012.7
20260510032039 59 171 0.0 1.0 0.00 0.00 0.00 59 1012.7
20260510031540 59 171 0.0 2.0 0.00 0.00 0.00 59 1012.7
20260510031109 60 171 0.0 2.0 0.00 0.00 0.00 59 1012.7
20260510030038 60 171 0.0 2.0 0.00 0.00 0.00 59 1012.9
20260510025533 61 169 0.0 1.0 0.00 0.00 0.00 61 1012.9
20260510025033 61 169 0.0 1.0 0.00 0.00 0.00 63 1012.9
20260510024529 61 169 0.0 1.0 0.00 0.00 0.00 63 1012.9
20260510024028 62 169 0.0 1.0 0.00 0.00 0.00 64 1012.9
20260510023528 62 169 0.0 1.0 0.00 0.00 0.00 65 1013.0
20260510023025 62 169 0.0 1.0 0.00 0.00 0.00 65 1013.0
20260510022523 62 169 0.0 0.0 0.00 0.00 0.00 63 1013.0
20260510022023 62 169 0.0 0.0 0.00 0.00 0.00 62 1013.1
20260510021527 63 169 0.0 0.0 0.00 0.00 0.00 60 1013.2
20260510021021 63 169 0.0 1.0 0.00 0.00 0.00 60 1013.3
20260510020518 63 169 0.0 2.0 0.00 0.00 0.00 57 1013.4
20260510020018 63 169 0.0 2.0 0.00 0.00 0.00 58 1013.3
20260510015514 64 169 0.0 1.0 0.00 0.00 0.00 56 1013.5
20260510015027 63 169 0.0 1.0 0.00 0.00 0.00 55 1013.6
20260510010020 65 151 0.0 6.0 0.00 0.00 0.00 53 1014.3
20260510005518 65 208 2.0 6.0 0.00 0.00 0.00 53 1014.4
20260510005017 65 159 2.0 6.0 0.00 0.00 0.00 52 1014.5
20260510004515 65 184 2.0 6.0 0.00 0.00 0.00 52 1014.5
20260510004019 66 144 1.0 4.0 0.00 0.00 0.00 54 1014.5
20260510003513 66 178 1.0 6.0 0.00 0.00 0.00 53 1014.6
20260510003021 66 141 1.0 7.0 0.00 0.00 0.00 51 1014.5
20260510002509 66 193 0.0 7.0 0.00 0.00 0.00 53 1014.6
20260510002010 67 223 1.0 4.0 0.00 0.00 0.00 53 1014.5
20260510001507 66 200 3.0 4.0 0.00 0.00 0.00 50 1014.6
20260510001005 67 19 0.0 4.0 0.00 0.00 0.00 53 1014.8
20260510000504 66 151 0.0 7.0 0.00 0.00 0.00 52 1014.9
20260510000002 66 152 2.0 7.0 0.00 0.00 0.00 54 1014.9
20260509235501 66 152 1.0 4.0 0.00 0.00 0.00 51 1015.0
20260509235101 66 231 1.0 4.0 0.00 0.00 0.00 52 1015.1
20260509234633 66 207 2.0 4.0 0.00 0.00 0.00 51 1015.2
20260509234057 67 38 1.0 5.0 0.00 0.00 0.00 54 1015.2
20260509233556 66 48 1.0 5.0 0.00 0.00 0.00 53 1015.3
20260509233053 66 221 1.0 4.0 0.00 0.00 0.00 53 1015.4
20260509232554 66 150 1.0 5.0 0.00 0.00 0.00 53 1015.4
20260509232051 66 185 2.0 5.0 0.00 0.00 0.00 51 1015.6
20260509231549 66 65 0.0 6.0 0.00 0.00 0.00 54 1015.7
20260509231047 65 162 2.0 6.0 0.00 0.00 0.00 53 1015.8
20260509230646 65 236 2.0 6.0 0.00 0.00 0.00 54 1015.9
20260509230056 64 130 3.0 6.0 0.00 0.00 0.00 54 1016.1
20260509225554 64 138 1.0 6.0 0.00 0.00 0.00 56 1016.0
20260509225052 64 158 1.0 6.0 0.00 0.00 0.00 54 1016.1
20260509224551 65 111 1.0 7.0 0.00 0.00 0.00 55 1016.2
20260509224051 64 146 2.0 7.0 0.00 0.00 0.00 54 1016.3
20260509223549 65 136 1.0 4.0 0.00 0.00 0.00 55 1016.4
20260509223047 65 165 1.0 5.0 0.00 0.00 0.00 55 1016.5
20260509222547 64 180 2.0 7.0 0.00 0.00 0.00 56 1016.5
20260509222045 65 184 2.0 5.0 0.00 0.00 0.00 56 1016.4
20260509221542 64 151 1.0 5.0 0.00 0.00 0.00 55 1016.5
20260509221041 65 111 1.0 8.0 0.00 0.00 0.00 57 1016.5
20260509220640 65 159 2.0 8.0 0.00 0.00 0.00 54 1016.7
20260509220108 65 123 1.0 5.0 0.00 0.00 0.00 58 1016.6
20260509215556 65 124 1.0 5.0 0.00 0.00 0.00 56 1016.7
20260509215054 65 133 2.0 5.0 0.00 0.00 0.00 54 1016.8
20260509214554 65 202 2.0 4.0 0.00 0.00 0.00 54 1017.1
20260509214052 64 122 1.0 6.0 0.00 0.00 0.00 58 1017.0
20260509213551 63 212 2.0 6.0 0.00 0.00 0.00 57 1017.1
20260509213051 63 56 2.0 6.0 0.00 0.00 0.00 56 1017.2
20260509212547 64 238 1.0 6.0 0.00 0.00 0.00 57 1017.3
20260509212046 63 138 4.0 9.0 0.00 0.00 0.00 57 1017.4
20260509211552 63 218 2.0 9.0 0.00 0.00 0.00 57 1017.2
20260509211048 63 101 1.0 6.0 0.00 0.00 0.00 59 1017.0
20260509210546 63 148 1.0 8.0 0.00 0.00 0.00 57 1017.1
20260509210047 63 155 1.0 8.0 0.00 0.00 0.00 57 1017.0
20260509205544 64 223 2.0 7.0 0.00 0.00 0.00 59 1016.9
20260509205047 63 221 2.0 7.0 0.00 0.00 0.00 58 1017.0
20260509204544 63 200 4.0 7.0 0.00 0.00 0.00 56 1017.0
20260509204144 64 270 1.0 5.0 0.00 0.00 0.00 57 1017.0
20260509203542 62 192 2.0 7.0 0.00 0.00 0.00 58 1017.2
20260509203103 62 225 2.0 6.0 0.00 0.00 0.00 59 1017.3
20260509202543 62 81 2.0 6.0 0.00 0.00 0.00 57 1017.6
20260509202044 63 201 2.0 8.0 0.00 0.00 0.00 58 1017.8
20260509201540 62 264 2.0 9.0 0.00 0.00 0.00 58 1017.8
20260509201039 63 205 2.0 9.0 0.00 0.00 0.00 57 1017.6
20260509200639 63 171 2.0 9.0 0.00 0.00 0.00 60 1017.7
20260509200054 63 175 2.0 7.0 0.00 0.00 0.00 57 1017.7
20260509195543 63 299 1.0 6.0 0.00 0.00 0.00 59 1017.8
20260509195043 62 59 0.0 5.0 0.00 0.00 0.00 62 1017.7
20260509194543 62 122 1.0 6.0 0.00 0.00 0.00 60 1017.8
20260509194043 63 169 2.0 6.0 0.00 0.00 0.00 61 1017.8
20260509193542 64 276 1.0 4.0 0.00 0.00 0.00 59 1017.8
20260509193040 62 5 1.0 7.0 0.00 0.00 0.00 62 1017.8
20260509192541 63 164 2.0 7.0 0.00 0.00 0.00 59 1017.9
20260509192041 62 83 0.0 2.0 0.00 0.00 0.00 62 1017.8
20260509191548 63 106 1.0 4.0 0.00 0.00 0.00 61 1017.9
20260509191036 62 48 1.0 4.0 0.00 0.00 0.00 63 1018.0
20260509190638 61 173 1.0 4.0 0.00 0.00 0.00 63 1018.1
20260509190056 61 188 1.0 4.0 0.00 0.00 0.00 63 1018.3
20260509185556 60 184 0.0 6.0 0.00 0.00 0.00 68 1018.4
20260509185053 59 130 2.0 6.0 0.00 0.00 0.00 65 1018.4
20260509184552 59 180 1.0 6.0 0.00 0.00 0.00 66 1018.4
20260509184050 59 180 1.0 6.0 0.00 0.00 0.00 66 1018.6
20260509183550 59 208 0.0 3.0 0.00 0.00 0.00 67 1018.4
20260509183050 59 191 0.0 3.0 0.00 0.00 0.00 69 1018.4
20260509182549 59 46 0.0 3.0 0.00 0.00 0.00 68 1018.4
20260509182048 59 47 1.0 3.0 0.00 0.00 0.00 69 1018.6
20260509181546 58 33 0.0 2.0 0.00 0.00 0.00 70 1018.7
20260509181020 58 63 0.0 3.0 0.00 0.00 0.00 70 1018.7
20260509180519 58 61 0.0 3.0 0.00 0.00 0.00 70 1018.8
20260509180020 58 62 0.0 3.0 0.00 0.00 0.00 70 1018.7
20260509175518 58 62 0.0 3.0 0.00 0.00 0.00 71 1018.7
20260509175017 57 132 0.0 3.0 0.00 0.00 0.00 70 1018.6
20260509174516 57 123 0.0 2.0 0.00 0.00 0.00 71 1018.6
20260509174020 57 123 0.0 3.0 0.00 0.00 0.00 73 1018.6
20260509173514 57 123 0.0 3.0 0.00 0.00 0.00 71 1018.7
20260509173014 57 101 0.0 2.0 0.00 0.00 0.00 72 1018.6
20260509172514 57 106 0.0 2.0 0.00 0.00 0.00 71 1018.7
20260509172014 57 106 0.0 3.0 0.00 0.00 0.00 72 1018.7
20260509171511 56 106 0.0 3.0 0.00 0.00 0.00 73 1018.7
20260509171010 56 154 0.0 3.0 0.00 0.00 0.00 73 1018.9
20260509170509 56 190 1.0 3.0 0.00 0.00 0.00 72 1018.9
20260509170010 56 175 1.0 3.0 0.00 0.00 0.00 72 1019.0
20260509165509 56 175 0.0 3.0 0.00 0.00 0.00 73 1018.9
20260509165008 55 174 0.0 3.0 0.00 0.00 0.00 74 1019.0
20260509164506 55 171 1.0 3.0 0.00 0.00 0.00 73 1019.0
20260509164006 55 196 1.0 3.0 0.00 0.00 0.00 73 1019.1
20260509163510 55 197 1.0 3.0 0.00 0.00 0.00 73 1019.1
20260509163008 55 185 1.0 3.0 0.00 0.00 0.00 73 1019.1
20260509162505 55 244 0.0 3.0 0.00 0.00 0.00 74 1019.1
20260509162004 55 200 1.0 3.0 0.00 0.00 0.00 74 1019.2
20260509161503 55 254 1.0 3.0 0.00 0.00 0.00 74 1019.3
20260509161102 55 269 0.0 2.0 0.00 0.00 0.00 74 1019.3
20260509160559 54 267 0.0 2.0 0.00 0.00 0.00 75 1019.3
20260509160158 54 19 1.0 2.0 0.00 0.00 0.00 75 1019.4
20260509155558 54 17 0.0 3.0 0.00 0.00 0.00 76 1019.5
20260509155056 53 17 1.0 3.0 0.00 0.00 0.00 77 1019.5
20260509154554 53 19 0.0 0.0 0.00 0.00 0.00 78 1019.6
20260509154052 53 20 0.0 0.0 0.00 0.00 0.00 79 1019.6
20260509153551 53 20 0.0 0.0 0.00 0.00 0.00 79 1019.5
20260509153051 52 20 0.0 0.0 0.00 0.00 0.00 80 1019.5
20260509152552 52 20 0.0 0.0 0.00 0.00 0.00 80 1019.6
20260509152049 52 7 0.0 0.0 0.00 0.00 0.00 81 1019.5
20260509151548 52 7 0.0 0.0 0.00 0.00 0.00 81 1019.5
20260509151047 52 7 0.0 2.0 0.00 0.00 0.00 81 1019.6
20260509150547 52 7 0.0 2.0 0.00 0.00 0.00 81 1019.6
20260509150047 52 7 0.0 1.0 0.00 0.00 0.00 81 1019.6
20260509145545 51 7 0.0 3.0 0.00 0.00 0.00 81 1019.6
20260509145044 51 7 0.0 3.0 0.00 0.00 0.00 81 1019.6
20260509144544 51 238 0.0 2.0 0.00 0.00 0.00 81 1019.7
20260509144044 51 243 0.0 2.0 0.00 0.00 0.00 81 1019.5
20260509143544 51 243 0.0 3.0 0.00 0.00 0.00 81 1019.5
20260509143044 51 236 0.0 4.0 0.00 0.00 0.00 82 1019.6
20260509142544 51 273 1.0 4.0 0.00 0.00 0.00 82 1019.6
20260509142043 51 31 0.0 2.0 0.00 0.00 0.00 82 1019.5
20260509141543 50 257 0.0 2.0 0.00 0.00 0.00 82 1019.5
20260509141043 50 258 0.0 2.0 0.00 0.00 0.00 82 1019.5
20260509140542 50 258 0.0 3.0 0.00 0.00 0.00 82 1019.5
20260509140143 50 256 0.0 4.0 0.00 0.00 0.00 82 1019.6
20260509135540 50 259 1.0 4.0 0.00 0.00 0.00 82 1019.6
20260509135040 50 238 0.0 2.0 0.00 0.00 0.00 82 1019.6
20260509134542 50 237 0.0 2.0 0.00 0.00 0.00 82 1019.6
20260509134040 50 237 0.0 2.0 0.00 0.00 0.00 82 1019.6
20260509133538 50 238 0.0 2.0 0.00 0.00 0.00 82 1019.6
20260509133036 50 238 0.0 2.0 0.00 0.00 0.00 82 1019.7
20260509132539 50 238 0.0 2.0 0.00 0.00 0.00 82 1019.7
20260509132035 49 238 0.0 4.0 0.00 0.00 0.00 82 1019.7
20260509131534 49 238 0.0 5.0 0.00 0.00 0.00 82 1019.7
20260509131033 49 207 2.0 5.0 0.00 0.00 0.00 83 1019.7
20260509130533 49 204 1.0 3.0 0.00 0.00 0.00 83 1019.6
20260509130050 49 232 0.0 7.0 0.00 0.00 0.00 83 1019.6
20260509125533 49 232 0.0 7.0 0.00 0.00 0.00 83 1019.5
20260509125032 49 254 1.0 3.0 0.00 0.00 0.00 83 1019.5
20260509124538 49 173 0.0 2.0 0.00 0.00 0.00 83 1019.5
20260509124032 49 343 0.0 2.0 0.00 0.00 0.00 83 1019.6
20260509123532 49 343 0.0 2.0 0.00 0.00 0.00 83 1019.5
20260509123032 49 343 0.0 2.0 0.00 0.00 0.00 83 1019.5
20260509122531 49 343 0.0 2.0 0.00 0.00 0.00 83 1019.5
20260509122031 49 343 0.0 1.0 0.00 0.00 0.00 83 1019.6
20260509121530 49 343 0.0 2.0 0.00 0.00 0.00 83 1019.6
20260509121030 49 343 0.0 2.0 0.00 0.00 0.00 83 1019.6
20260509120529 49 343 0.0 2.0 0.00 0.00 0.00 83 1019.7
20260509120033 49 9 0.0 2.0 0.00 0.00 0.00 83 1019.7
20260509115528 49 9 0.0 3.0 0.00 0.00 0.00 83 1019.7
20260509115031 49 9 0.0 3.0 0.00 0.00 0.00 83 1019.6
20260509114529 49 27 0.0 2.0 0.00 0.00 0.00 83 1019.7
20260509114029 49 36 0.0 2.0 0.00 0.00 0.00 84 1019.7
20260509113529 49 36 0.0 2.0 0.00 0.00 0.00 83 1019.7
20260509113029 49 36 0.0 2.0 0.00 0.00 0.00 83 1019.7
20260509112528 49 36 0.0 1.0 0.00 0.00 0.00 83 1019.7
20260509112028 49 36 0.0 0.0 0.00 0.00 0.00 83 1019.7
20260509111527 49 37 0.0 1.0 0.00 0.00 0.00 83 1019.7
20260509111027 49 37 0.0 2.0 0.00 0.00 0.00 83 1019.7
20260509110527 49 281 0.0 5.0 0.00 0.00 0.00 83 1019.7
20260509110026 48 275 2.0 5.0 0.00 0.00 0.00 84 1019.6
20260509105527 48 238 0.0 5.0 0.00 0.00 0.00 84 1019.6
20260509105027 48 248 2.0 5.0 0.00 0.00 0.00 85 1019.5
20260509104525 48 357 0.0 5.0 0.00 0.00 0.00 85 1019.5
20260509104024 48 357 1.0 5.0 0.00 0.00 0.00 85 1019.5
20260509103524 48 332 0.0 2.0 0.00 0.00 0.00 85 1019.5
20260509103024 48 333 0.0 2.0 0.00 0.00 0.00 85 1019.5
20260509102524 48 329 0.0 2.0 0.00 0.00 0.00 85 1019.5
20260509102024 48 329 0.0 3.0 0.00 0.00 0.00 85 1019.5
20260509101528 48 323 0.0 3.0 0.00 0.00 0.00 85 1019.4
20260509101022 48 255 0.0 5.0 0.00 0.00 0.00 85 1019.4
20260509100522 48 256 1.0 5.0 0.00 0.00 0.00 84 1019.5
20260509100024 47 308 1.0 3.0 0.00 0.00 0.00 84 1019.4
20260509095522 47 308 0.0 5.0 0.00 0.00 0.00 84 1019.4
20260509095021 47 304 1.0 5.0 0.00 0.00 0.00 84 1019.3
20260509094520 47 336 0.0 2.0 0.00 0.00 0.00 83 1019.5
20260509094020 47 336 0.0 2.0 0.00 0.00 0.00 83 1019.4
20260509093520 47 336 0.0 2.0 0.00 0.00 0.00 83 1019.3
20260509093020 48 336 0.0 2.0 0.00 0.00 0.00 82 1019.3
20260509092521 48 336 0.0 2.0 0.00 0.00 0.00 82 1019.3
20260509092021 48 22 0.0 2.0 0.00 0.00 0.00 82 1019.3
20260509091517 48 23 0.0 2.0 0.00 0.00 0.00 82 1019.3
20260509091017 48 23 0.0 2.0 0.00 0.00 0.00 82 1019.3
20260509090518 48 23 0.0 2.0 0.00 0.00 0.00 82 1019.3
20260509090016 48 23 0.0 2.0 0.00 0.00 0.00 81 1019.3
20260509085514 48 342 0.0 2.0 0.00 0.00 0.00 81 1019.3
20260509085013 48 343 0.0 2.0 0.00 0.00 0.00 81 1019.3
20260509084525 48 343 1.0 2.0 0.00 0.00 0.00 80 1019.3
20260509084018 49 343 0.0 2.0 0.00 0.00 0.00 80 1019.3
20260509083511 49 343 0.0 3.0 0.00 0.00 0.00 80 1019.4
20260509083021 49 342 0.0 3.0 0.00 0.00 0.00 80 1019.5
20260509082511 49 101 0.0 2.0 0.00 0.00 0.00 79 1019.4